Погода в Башкатове

Россия / Курская область     51°15′46″N   35°58′38″E
темп.,
°C
ветер,
м/с
пор.,
м/с
влажн.,
%
обл.,
%
осадки,
мм/ч
давл.,
гПа
погр.,
м
5 августа, чт
чт500:00+16вюв366010 0.0 1018100
03:00+15юв3561100 0.0 101868
06:00+16юв375780 0.0 1017153
09:00+23ююв5742100 0.0 1016512
12:00+24ю2344100 0.0 101590
15:00+28юз5734100 0.0 10142198
18:00+26ююв2440100 0.0 1013195
21:00+22юв354873 0.0 101369
6 августа, пт
пт600:00+19юв410546 0.0 1012151
03:00+19ююв485429 0.0 1012139
06:00+18юв3957100 0.0 1011176
09:00+25ююв583771 0.0 1010473
12:00+31ююв683423 0.0 10081893
15:00+34ю78245 0.0 10063108
18:00+33ююз582966 0.0 10051694
21:00+21юв447592 1.3 100752
7 августа, сб
сб700:00+20вюв3785100 0.9 1007102
03:00+20вюв478041 1.2 1007104
06:00+18юв41584100 1.9 1008384
09:00+23юв61462100 2.3 1008565
12:00+25ююв6955100 1.7 1008621
15:00+26ю3557100 3.6 1008516
18:00+27ссв1154100 0.0 100747
21:00+22св3471100 0.0 100945
8 августа, вс
вс800:00+20ссз4688100 0.2 1010138
03:00+19ссз51094100 0.7 1011294
06:00+18ссз4997100 2.9 1012289
09:00+22с677810 2.9 1013499
12:00+26с66542 0.1 1013841
15:00+28ссв444728 0.1 10131526
18:00+28с44480 0.0 10131323
21:00+22с410560 0.0 1015229
9 августа, пн
пн900:00+21ссв4952100 0.0 1016241
03:00+18ссв48600 0.0 1016175
06:00+17ссв37675 0.0 1016141
09:00+23ссв46475 0.0 1016505
12:00+28ссв44320 0.0 10161268
15:00+29с43263 0.0 10151774
18:00+28ссз43310 0.0 10151442
21:00+21ссз35521 0.0 101663